Time,TemperatureF,DewpointF,PressureIn,WindDirection,WindDirectionDegrees,WindSpeedMPH,WindSpeedGustMPH,Humidity,HourlyPrecipIn,Conditions,Clouds,dailyrainin,SoftwareType,DateUTC
2016-12-09 00:00:00,22.5,18.3,30.51,SW,217,0.0,3.0,84,0.00,,,0.00,meteobridge,2016-12-09 05:00:00,
2016-12-09 00:05:00,22.6,18.5,30.51,SSE,148,0.9,3.0,84,0.00,,,0.00,meteobridge,2016-12-09 05:05:00,
2016-12-09 00:10:00,22.5,18.3,30.51,East,79,2.0,4.0,84,0.00,,,0.00,meteobridge,2016-12-09 05:10:00,
2016-12-09 00:15:00,22.5,18.3,30.51,SSE,148,0.9,2.0,84,0.00,,,0.00,meteobridge,2016-12-09 05:15:00,
2016-12-09 00:20:00,22.5,17.8,30.51,SW,226,0.0,2.0,82,0.00,,,0.00,meteobridge,2016-12-09 05:20:00,
2016-12-09 00:25:00,22.5,17.6,30.52,ESE,110,0.9,6.0,81,0.00,,,0.00,meteobridge,2016-12-09 05:25:00,
2016-12-09 00:30:00,22.3,17.4,30.52,SE,136,2.0,5.0,81,0.00,,,0.00,meteobridge,2016-12-09 05:30:00,
2016-12-09 00:35:00,22.3,17.1,30.52,East,96,2.0,3.0,80,0.00,,,0.00,meteobridge,2016-12-09 05:35:00,
2016-12-09 00:40:00,22.3,17.1,30.52,East,91,0.9,5.0,80,0.00,,,0.00,meteobridge,2016-12-09 05:40:00,
2016-12-09 00:45:00,22.1,16.9,30.52,ESE,120,2.0,4.0,80,0.00,,,0.00,meteobridge,2016-12-09 05:45:00,
2016-12-09 00:50:00,22.1,16.9,30.52,East,81,0.9,2.0,80,0.00,,,0.00,meteobridge,2016-12-09 05:50:00,
2016-12-09 00:55:00,21.9,16.7,30.52,ESE,123,2.0,2.0,80,0.00,,,0.00,meteobridge,2016-12-09 05:55:00,
2016-12-09 01:00:00,21.9,16.7,30.52,SE,136,0.9,2.0,80,0.00,,,0.00,meteobridge,2016-12-09 06:00:00,
2016-12-09 01:06:00,21.9,17.1,30.52,East,80,0.0,3.0,81,0.00,,,0.00,meteobridge,2016-12-09 06:06:00,
2016-12-09 01:16:00,21.9,17.2,30.52,East,93,0.0,2.0,82,0.00,,,0.00,meteobridge,2016-12-09 06:16:00,
2016-12-09 01:21:00,21.9,17.6,30.52,WSW,251,0.0,2.0,83,0.00,,,0.00,meteobridge,2016-12-09 06:21:00,
2016-12-09 01:26:00,21.9,17.6,30.52,ESE,115,0.9,2.0,83,0.00,,,0.00,meteobridge,2016-12-09 06:26:00,
2016-12-09 01:31:00,21.9,17.6,30.52,SE,141,0.9,2.0,83,0.00,,,0.00,meteobridge,2016-12-09 06:31:00,
2016-12-09 01:36:00,21.9,17.6,30.52,SE,135,0.0,2.0,83,0.00,,,0.00,meteobridge,2016-12-09 06:36:00,
2016-12-09 01:41:00,21.9,17.6,30.52,SE,146,2.0,3.0,83,0.00,,,0.00,meteobridge,2016-12-09 06:41:00,
2016-12-09 01:46:00,21.7,17.4,30.52,East,91,0.9,2.0,83,0.00,,,0.00,meteobridge,2016-12-09 06:46:00,
2016-12-09 01:51:00,21.7,17.1,30.52,East,80,2.0,2.0,82,0.00,,,0.00,meteobridge,2016-12-09 06:51:00,
2016-12-09 01:56:00,21.7,16.9,30.53,ESE,115,0.0,2.0,81,0.00,,,0.00,meteobridge,2016-12-09 06:56:00,
2016-12-09 02:01:00,21.7,16.9,30.53,ESE,109,0.0,3.0,81,0.00,,,0.00,meteobridge,2016-12-09 07:01:00,
2016-12-09 02:06:00,21.7,16.2,30.53,East,87,0.9,2.0,79,0.00,,,0.00,meteobridge,2016-12-09 07:06:00,
2016-12-09 02:11:00,21.7,16.2,30.52,SW,218,2.9,3.0,79,0.00,,,0.00,meteobridge,2016-12-09 07:11:00,
2016-12-09 02:16:00,21.7,16.0,30.53,SSE,165,0.0,2.0,78,0.00,,,0.00,meteobridge,2016-12-09 07:16:00,
2016-12-09 02:21:00,21.7,16.0,30.53,SE,135,0.0,2.0,78,0.00,,,0.00,meteobridge,2016-12-09 07:21:00,
2016-12-09 02:26:00,21.7,16.5,30.53,East,90,2.0,2.0,80,0.00,,,0.00,meteobridge,2016-12-09 07:26:00,
2016-12-09 02:31:00,21.7,16.9,30.53,SW,227,0.0,2.0,81,0.00,,,0.00,meteobridge,2016-12-09 07:31:00,
2016-12-09 02:36:00,21.7,17.1,30.53,ENE,72,2.9,3.0,82,0.00,,,0.00,meteobridge,2016-12-09 07:36:00,
2016-12-09 02:41:00,21.7,16.9,30.53,SE,131,0.0,3.0,81,0.00,,,0.00,meteobridge,2016-12-09 07:41:00,
2016-12-09 02:46:00,21.7,16.5,30.53,SSW,207,0.0,4.0,80,0.00,,,0.00,meteobridge,2016-12-09 07:46:00,
2016-12-09 02:51:00,21.7,16.2,30.53,East,100,2.0,3.0,79,0.00,,,0.00,meteobridge,2016-12-09 07:51:00,
2016-12-09 02:56:00,21.7,16.0,30.54,SE,139,0.9,2.0,78,0.00,,,0.00,meteobridge,2016-12-09 07:56:00,
2016-12-09 03:01:00,21.7,16.0,30.54,South,174,0.0,2.0,78,0.00,,,0.00,meteobridge,2016-12-09 08:01:00,
2016-12-09 03:06:00,21.7,15.6,30.54,SW,224,0.9,2.0,77,0.00,,,0.00,meteobridge,2016-12-09 08:06:00,
2016-12-09 03:11:00,21.7,15.6,30.54,SE,146,0.0,2.0,77,0.00,,,0.00,meteobridge,2016-12-09 08:11:00,
2016-12-09 03:16:00,21.7,15.6,30.54,ESE,103,2.0,4.0,77,0.00,,,0.00,meteobridge,2016-12-09 08:16:00,
2016-12-09 03:21:00,21.7,15.3,30.54,SSW,198,0.0,3.0,76,0.00,,,0.00,meteobridge,2016-12-09 08:21:00,
2016-12-09 03:26:00,21.7,15.3,30.54,East,80,0.0,2.0,76,0.00,,,0.00,meteobridge,2016-12-09 08:26:00,
2016-12-09 03:31:00,21.7,15.3,30.54,ESE,120,0.0,2.0,76,0.00,,,0.00,meteobridge,2016-12-09 08:31:00,
2016-12-09 03:37:00,21.9,15.4,30.54,SE,139,0.0,1.0,76,0.00,,,0.00,meteobridge,2016-12-09 08:37:00,
2016-12-09 03:42:00,21.7,15.3,30.54,ESE,116,2.0,5.0,76,0.00,,,0.00,meteobridge,2016-12-09 08:42:00,
2016-12-09 03:47:00,21.7,15.3,30.55,SW,217,0.0,1.0,76,0.00,,,0.00,meteobridge,2016-12-09 08:47:00,
2016-12-09 03:52:00,21.7,15.3,30.54,East,96,2.0,4.0,76,0.00,,,0.00,meteobridge,2016-12-09 08:52:00,
2016-12-09 03:57:00,21.9,15.4,30.54,SW,221,0.0,2.0,76,0.00,,,0.00,meteobridge,2016-12-09 08:57:00,
2016-12-09 04:02:00,21.9,15.8,30.54,South,174,0.9,1.0,77,0.00,,,0.00,meteobridge,2016-12-09 09:02:00,
2016-12-09 04:17:00,21.9,15.8,30.54,SE,143,0.0,2.0,77,0.00,,,0.00,meteobridge,2016-12-09 09:17:00,
2016-12-09 04:22:00,21.9,15.8,30.54,ESE,106,0.0,0.0,77,0.00,,,0.00,meteobridge,2016-12-09 09:22:00,
2016-12-09 04:27:00,21.9,16.2,30.54,SW,236,0.0,1.0,78,0.00,,,0.00,meteobridge,2016-12-09 09:27:00,
2016-12-09 04:32:00,21.9,15.8,30.54,SSW,205,0.9,3.0,77,0.00,,,0.00,meteobridge,2016-12-09 09:32:00,
2016-12-09 04:37:00,21.9,15.8,30.54,East,87,0.0,1.0,77,0.00,,,0.00,meteobridge,2016-12-09 09:37:00,
2016-12-09 04:42:00,21.9,16.2,30.54,East,82,0.0,1.0,78,0.00,,,0.00,meteobridge,2016-12-09 09:42:00,
2016-12-09 04:47:00,21.9,16.2,30.54,SE,139,0.0,1.0,78,0.00,,,0.00,meteobridge,2016-12-09 09:47:00,
2016-12-09 04:52:00,21.9,16.2,30.54,SSW,202,0.0,0.0,78,0.00,,,0.00,meteobridge,2016-12-09 09:52:00,
2016-12-09 04:57:00,22.1,16.3,30.55,SSW,202,0.9,2.0,78,0.00,,,0.00,meteobridge,2016-12-09 09:57:00,
2016-12-09 05:02:00,21.9,16.2,30.54,SSW,207,0.0,1.0,78,0.00,,,0.00,meteobridge,2016-12-09 10:02:00,
2016-12-09 05:08:00,21.9,16.3,30.55,SE,144,0.0,1.0,79,0.00,,,0.00,meteobridge,2016-12-09 10:08:00,
2016-12-09 05:13:00,21.9,16.3,30.55,SE,134,0.9,2.0,79,0.00,,,0.00,meteobridge,2016-12-09 10:13:00,
2016-12-09 05:18:00,21.9,16.3,30.55,South,182,0.0,1.0,79,0.00,,,0.00,meteobridge,2016-12-09 10:18:00,
2016-12-09 05:23:00,21.9,16.3,30.55,ESE,118,0.9,2.0,79,0.00,,,0.00,meteobridge,2016-12-09 10:23:00,
2016-12-09 05:28:00,21.9,16.2,30.55,SE,141,0.9,1.0,78,0.00,,,0.00,meteobridge,2016-12-09 10:28:00,
2016-12-09 05:33:00,21.9,16.2,30.55,SSE,150,0.0,3.0,78,0.00,,,0.00,meteobridge,2016-12-09 10:33:00,
2016-12-09 05:38:00,21.9,16.2,30.55,South,177,0.0,2.0,78,0.00,,,0.00,meteobridge,2016-12-09 10:38:00,
2016-12-09 05:43:00,21.9,16.3,30.55,ESE,114,0.0,2.0,79,0.00,,,0.00,meteobridge,2016-12-09 10:43:00,
2016-12-09 05:48:00,21.9,16.3,30.55,West,261,0.0,1.0,79,0.00,,,0.00,meteobridge,2016-12-09 10:48:00,
2016-12-09 05:53:00,21.9,16.2,30.55,SSE,163,0.0,3.0,78,0.00,,,0.00,meteobridge,2016-12-09 10:53:00,
2016-12-09 05:58:00,21.9,16.2,30.56,SW,217,2.0,2.0,78,0.00,,,0.00,meteobridge,2016-12-09 10:58:00,
2016-12-09 06:03:00,21.9,16.2,30.55,SE,128,0.9,1.0,78,0.00,,,0.00,meteobridge,2016-12-09 11:03:00,
2016-12-09 06:08:00,21.7,15.3,30.55,SSW,213,0.9,2.0,76,0.00,,,0.00,meteobridge,2016-12-09 11:08:00,
2016-12-09 06:13:00,21.7,16.0,30.56,SE,141,0.0,2.0,78,0.00,,,0.00,meteobridge,2016-12-09 11:13:00,
2016-12-09 06:18:00,21.7,16.0,30.56,SE,145,0.0,2.0,78,0.00,,,0.00,meteobridge,2016-12-09 11:18:00,
2016-12-09 06:23:00,21.7,15.6,30.55,SW,229,2.0,3.0,77,0.00,,,0.00,meteobridge,2016-12-09 11:23:00,
2016-12-09 06:28:00,21.7,15.6,30.56,SSW,203,0.0,1.0,77,0.00,,,0.00,meteobridge,2016-12-09 11:28:00,
2016-12-09 06:33:00,21.7,15.6,30.56,ESE,105,0.0,4.0,77,0.00,,,0.00,meteobridge,2016-12-09 11:33:00,
2016-12-09 06:38:00,21.7,15.3,30.56,East,84,0.9,5.0,76,0.00,,,0.00,meteobridge,2016-12-09 11:38:00,
2016-12-09 06:44:00,21.7,15.3,30.56,East,83,0.9,3.0,76,0.00,,,0.00,meteobridge,2016-12-09 11:44:00,
2016-12-09 06:49:00,21.6,15.4,30.56,NNE,24,0.0,2.0,77,0.00,,,0.00,meteobridge,2016-12-09 11:49:00,
2016-12-09 06:54:00,21.7,16.0,30.57,SSE,148,2.0,3.0,78,0.00,,,0.00,meteobridge,2016-12-09 11:54:00,
2016-12-09 06:59:00,21.6,15.4,30.57,SE,142,0.0,4.0,77,0.00,,,0.00,meteobridge,2016-12-09 11:59:00,
2016-12-09 07:04:00,21.6,15.4,30.57,South,186,0.0,2.0,77,0.00,,,0.00,meteobridge,2016-12-09 12:04:00,
2016-12-09 07:09:00,21.6,15.8,30.57,South,175,0.0,2.0,78,0.00,,,0.00,meteobridge,2016-12-09 12:09:00,
2016-12-09 07:14:00,21.6,15.8,30.57,SE,141,0.0,2.0,78,0.00,,,0.00,meteobridge,2016-12-09 12:14:00,
2016-12-09 07:19:00,21.6,15.8,30.57,South,178,0.0,2.0,78,0.00,,,0.00,meteobridge,2016-12-09 12:19:00,
2016-12-09 07:24:00,21.6,15.8,30.58,ENE,74,0.9,3.0,78,0.00,,,0.00,meteobridge,2016-12-09 12:24:00,
2016-12-09 07:29:00,21.6,15.8,30.58,East,91,2.0,2.0,78,0.00,,,0.00,meteobridge,2016-12-09 12:29:00,
2016-12-09 07:34:00,21.6,15.8,30.58,East,97,2.9,3.0,78,0.00,,,0.00,meteobridge,2016-12-09 12:34:00,
2016-12-09 07:39:00,21.6,15.8,30.58,South,186,0.0,3.0,78,0.00,,,0.00,meteobridge,2016-12-09 12:39:00,
2016-12-09 07:44:00,21.6,15.8,30.58,East,99,0.0,1.0,78,0.00,,,0.00,meteobridge,2016-12-09 12:44:00,
2016-12-09 07:49:00,21.6,15.8,30.58,ESE,106,0.0,1.0,78,0.00,,,0.00,meteobridge,2016-12-09 12:49:00,
2016-12-09 07:54:00,21.6,15.8,30.58,ESE,110,0.9,2.0,78,0.00,,,0.00,meteobridge,2016-12-09 12:54:00,
2016-12-09 07:59:00,21.6,15.8,30.58,SW,221,0.0,2.0,78,0.00,,,0.00,meteobridge,2016-12-09 12:59:00,
2016-12-09 08:04:00,21.6,15.8,30.59,SE,135,0.9,3.0,78,0.00,,,0.00,meteobridge,2016-12-09 13:04:00,
2016-12-09 08:09:00,21.6,15.8,30.58,East,89,0.0,3.0,78,0.00,,,0.00,meteobridge,2016-12-09 13:09:00,
2016-12-09 08:14:00,21.6,15.8,30.59,South,191,0.0,1.0,78,0.00,,,0.00,meteobridge,2016-12-09 13:14:00,
2016-12-09 08:19:00,21.7,16.0,30.59,SW,217,0.0,1.0,78,0.00,,,0.00,meteobridge,2016-12-09 13:19:00,
2016-12-09 08:24:00,21.7,16.0,30.59,SW,216,2.0,2.0,78,0.00,,,0.00,meteobridge,2016-12-09 13:24:00,
2016-12-09 08:29:00,21.7,16.0,30.59,WSW,255,0.0,3.0,78,0.00,,,0.00,meteobridge,2016-12-09 13:29:00,
2016-12-09 08:34:00,21.7,16.0,30.59,East,93,0.9,2.0,78,0.00,,,0.00,meteobridge,2016-12-09 13:34:00,
2016-12-09 08:39:00,21.7,16.0,30.60,East,95,0.0,2.0,78,0.00,,,0.00,meteobridge,2016-12-09 13:39:00,
2016-12-09 08:44:00,21.7,16.0,30.60,SSW,210,0.9,3.0,78,0.00,,,0.00,meteobridge,2016-12-09 13:44:00,
2016-12-09 08:49:00,21.7,16.0,30.60,SE,137,0.9,2.0,78,0.00,,,0.00,meteobridge,2016-12-09 13:49:00,
2016-12-09 08:59:00,21.9,16.3,30.60,ESE,112,2.0,3.0,79,0.00,,,0.00,meteobridge,2016-12-09 13:59:00,
2016-12-09 09:04:00,21.9,16.2,30.60,South,180,0.0,2.0,78,0.00,,,0.00,meteobridge,2016-12-09 14:04:00,
2016-12-09 09:09:00,21.9,16.2,30.60,ESE,121,0.9,2.0,78,0.00,,,0.00,meteobridge,2016-12-09 14:09:00,
2016-12-09 09:14:00,21.9,16.2,30.60,ESE,111,0.0,1.0,78,0.00,,,0.00,meteobridge,2016-12-09 14:14:00,
2016-12-09 09:19:00,22.1,16.3,30.60,ESE,115,0.0,1.0,78,0.00,,,0.00,meteobridge,2016-12-09 14:19:00,
2016-12-09 09:24:00,22.1,16.3,30.61,SW,224,0.0,3.0,78,0.00,,,0.00,meteobridge,2016-12-09 14:24:00,
2016-12-09 09:29:00,22.1,16.3,30.61,SW,226,0.0,2.0,78,0.00,,,0.00,meteobridge,2016-12-09 14:29:00,
2016-12-09 09:34:00,22.1,16.3,30.61,ESE,102,0.0,1.0,78,0.00,,,0.00,meteobridge,2016-12-09 14:34:00,
2016-12-09 09:39:00,22.3,16.5,30.61,SE,139,0.0,1.0,78,0.00,,,0.00,meteobridge,2016-12-09 14:39:00,
2016-12-09 09:44:00,22.3,16.7,30.61,SSE,158,0.9,1.0,79,0.00,,,0.00,meteobridge,2016-12-09 14:44:00,
2016-12-09 09:49:00,22.5,16.7,30.61,ENE,71,2.0,3.0,78,0.00,,,0.00,meteobridge,2016-12-09 14:49:00,
2016-12-09 09:54:00,22.5,16.7,30.62,SSE,157,0.0,1.0,78,0.00,,,0.00,meteobridge,2016-12-09 14:54:00,
2016-12-09 09:59:00,22.5,16.7,30.62,ESE,108,0.0,1.0,78,0.00,,,0.00,meteobridge,2016-12-09 14:59:00,
2016-12-09 10:04:00,22.6,16.9,30.62,WSW,242,0.0,2.0,78,0.00,,,0.00,meteobridge,2016-12-09 15:04:00,
2016-12-09 10:09:00,22.6,16.5,30.63,South,182,0.9,1.0,77,0.00,,,0.00,meteobridge,2016-12-09 15:09:00,
2016-12-09 10:14:00,22.6,16.9,30.63,East,95,0.0,2.0,78,0.00,,,0.00,meteobridge,2016-12-09 15:14:00,
2016-12-09 10:20:00,22.8,17.1,30.63,SE,143,0.0,2.0,78,0.00,,,0.00,meteobridge,2016-12-09 15:20:00,
2016-12-09 10:24:00,22.8,17.1,30.63,ESE,122,0.0,1.0,78,0.00,,,0.00,meteobridge,2016-12-09 15:24:00,
2016-12-09 10:30:00,22.8,17.1,30.63,South,173,0.0,4.0,78,0.00,,,0.00,meteobridge,2016-12-09 15:30:00,
2016-12-09 10:35:00,22.8,17.1,30.63,SW,223,0.0,2.0,78,0.00,,,0.00,meteobridge,2016-12-09 15:35:00,
2016-12-09 10:40:00,22.8,17.1,30.63,SSW,203,0.0,2.0,78,0.00,,,0.00,meteobridge,2016-12-09 15:40:00,
2016-12-09 10:45:00,22.8,17.1,30.63,SE,130,0.0,2.0,78,0.00,,,0.00,meteobridge,2016-12-09 15:45:00,
2016-12-09 10:50:00,23.2,17.6,30.63,SE,139,0.0,2.0,79,0.00,,,0.00,meteobridge,2016-12-09 15:50:00,
2016-12-09 10:55:00,23.4,17.8,30.63,SE,124,0.9,1.0,79,0.00,,,0.00,meteobridge,2016-12-09 15:55:00,
2016-12-09 11:00:00,23.5,17.8,30.63,SW,223,0.9,3.0,78,0.00,,,0.00,meteobridge,2016-12-09 16:00:00,
2016-12-09 11:10:00,23.7,17.6,30.62,ESE,118,0.0,1.0,77,0.00,,,0.00,meteobridge,2016-12-09 16:10:00,
2016-12-09 11:15:00,24.1,18.0,30.62,SW,217,0.0,2.0,77,0.00,,,0.00,meteobridge,2016-12-09 16:15:00,
2016-12-09 11:20:00,24.3,17.8,30.63,SE,132,0.9,3.0,76,0.00,,,0.00,meteobridge,2016-12-09 16:20:00,
2016-12-09 11:25:00,24.3,17.4,30.62,SSW,204,0.0,4.0,75,0.00,,,0.00,meteobridge,2016-12-09 16:25:00,
2016-12-09 11:30:00,24.3,17.2,30.62,ESE,110,0.9,4.0,74,0.00,,,0.00,meteobridge,2016-12-09 16:30:00,
2016-12-09 11:35:00,24.1,17.1,30.62,SE,143,0.0,2.0,74,0.00,,,0.00,meteobridge,2016-12-09 16:35:00,
2016-12-09 11:40:00,24.1,17.1,30.62,East,91,0.0,4.0,74,0.00,,,0.00,meteobridge,2016-12-09 16:40:00,
2016-12-09 11:45:00,24.1,17.6,30.62,SE,140,0.0,3.0,76,0.00,,,0.00,meteobridge,2016-12-09 16:45:00,
2016-12-09 11:50:00,24.4,18.0,30.62,WNW,287,0.0,2.0,76,0.00,,,0.00,meteobridge,2016-12-09 16:50:00,
2016-12-09 11:55:00,24.6,17.2,30.62,SW,214,0.9,2.0,73,0.00,,,0.00,meteobridge,2016-12-09 16:55:00,
2016-12-09 12:00:00,24.8,17.8,30.62,South,178,0.0,1.0,74,0.00,,,0.00,meteobridge,2016-12-09 17:00:00,
2016-12-09 12:05:00,25.2,18.0,30.62,SE,127,0.9,2.0,74,0.00,,,0.00,meteobridge,2016-12-09 17:05:00,
2016-12-09 12:10:00,25.3,18.1,30.62,South,178,0.0,2.0,74,0.00,,,0.00,meteobridge,2016-12-09 17:10:00,
2016-12-09 12:15:00,25.3,18.0,30.62,East,93,0.9,2.0,73,0.00,,,0.00,meteobridge,2016-12-09 17:15:00,
2016-12-09 12:20:00,25.2,17.1,30.61,SE,146,0.0,2.0,71,0.00,,,0.00,meteobridge,2016-12-09 17:20:00,
2016-12-09 12:25:00,25.2,17.8,30.61,SSE,163,0.0,5.0,73,0.00,,,0.00,meteobridge,2016-12-09 17:25:00,
2016-12-09 12:30:00,25.3,17.6,30.61,South,175,0.9,1.0,72,0.00,,,0.00,meteobridge,2016-12-09 17:30:00,
2016-12-09 12:35:00,25.3,17.6,30.61,SW,222,0.9,2.0,72,0.00,,,0.00,meteobridge,2016-12-09 17:35:00,
2016-12-09 12:40:00,25.3,18.0,30.60,SSE,158,0.0,0.0,73,0.00,,,0.00,meteobridge,2016-12-09 17:40:00,
2016-12-09 12:45:00,25.5,17.8,30.60,SW,226,0.9,3.0,72,0.00,,,0.00,meteobridge,2016-12-09 17:45:00,
2016-12-09 12:50:00,25.3,17.6,30.60,ESE,123,0.9,2.0,72,0.00,,,0.00,meteobridge,2016-12-09 17:50:00,
2016-12-09 12:56:00,25.5,17.8,30.60,SE,124,0.9,1.0,72,0.00,,,0.00,meteobridge,2016-12-09 17:56:00,
2016-12-09 13:01:00,25.7,18.3,30.59,SSW,205,0.0,2.0,73,0.00,,,0.00,meteobridge,2016-12-09 18:01:00,
2016-12-09 13:06:00,25.9,18.1,30.59,East,89,0.9,2.0,72,0.00,,,0.00,meteobridge,2016-12-09 18:06:00,
2016-12-09 13:11:00,25.7,18.0,30.59,SW,236,0.9,2.0,72,0.00,,,0.00,meteobridge,2016-12-09 18:11:00,
2016-12-09 13:16:00,25.9,18.1,30.59,ESE,114,0.0,3.0,72,0.00,,,0.00,meteobridge,2016-12-09 18:16:00,
2016-12-09 13:21:00,26.2,18.9,30.58,ESE,110,0.0,1.0,73,0.00,,,0.00,meteobridge,2016-12-09 18:21:00,
2016-12-09 13:26:00,26.6,18.5,30.58,WNW,287,0.0,2.0,71,0.00,,,0.00,meteobridge,2016-12-09 18:26:00,
2016-12-09 13:31:00,26.4,18.0,30.58,SSE,156,0.0,1.0,70,0.00,,,0.00,meteobridge,2016-12-09 18:31:00,
2016-12-09 13:36:00,26.6,18.5,30.58,SSE,148,0.9,1.0,71,0.00,,,0.00,meteobridge,2016-12-09 18:36:00,
2016-12-09 13:41:00,26.4,18.0,30.58,SSE,149,0.0,1.0,70,0.00,,,0.00,meteobridge,2016-12-09 18:41:00,
2016-12-09 13:46:00,26.2,17.8,30.58,South,171,0.0,3.0,70,0.00,,,0.00,meteobridge,2016-12-09 18:46:00,
2016-12-09 13:51:00,26.2,18.9,30.59,East,96,0.0,1.0,73,0.00,,,0.00,meteobridge,2016-12-09 18:51:00,
2016-12-09 13:56:00,26.4,18.0,30.59,West,259,0.9,1.0,70,0.00,,,0.00,meteobridge,2016-12-09 18:56:00,
2016-12-09 14:01:00,26.2,18.1,30.58,ENE,63,0.0,1.0,71,0.00,,,0.00,meteobridge,2016-12-09 19:01:00,
2016-12-09 14:06:00,26.4,18.3,30.58,WSW,252,0.0,1.0,71,0.00,,,0.00,meteobridge,2016-12-09 19:06:00,
2016-12-09 14:11:00,26.4,18.0,30.58,SW,222,0.0,1.0,70,0.00,,,0.00,meteobridge,2016-12-09 19:11:00,
2016-12-09 14:16:00,26.4,18.3,30.58,East,93,0.0,1.0,71,0.00,,,0.00,meteobridge,2016-12-09 19:16:00,
2016-12-09 14:21:00,26.4,18.0,30.58,East,95,0.0,2.0,70,0.00,,,0.00,meteobridge,2016-12-09 19:21:00,
2016-12-09 14:26:00,26.4,18.0,30.58,SE,134,0.0,1.0,70,0.00,,,0.00,meteobridge,2016-12-09 19:26:00,
2016-12-09 14:31:00,26.4,18.0,30.58,South,170,0.0,1.0,70,0.00,,,0.00,meteobridge,2016-12-09 19:31:00,
2016-12-09 14:36:00,26.4,17.6,30.58,SE,141,0.0,1.0,69,0.00,,,0.00,meteobridge,2016-12-09 19:36:00,
2016-12-09 14:42:00,26.4,18.0,30.58,SSE,160,0.0,0.0,70,0.00,,,0.00,meteobridge,2016-12-09 19:42:00,
2016-12-09 14:47:00,26.4,18.3,30.58,SW,226,0.0,1.0,71,0.00,,,0.00,meteobridge,2016-12-09 19:47:00,
2016-12-09 14:52:00,26.2,17.8,30.58,SE,136,0.0,0.0,70,0.00,,,0.00,meteobridge,2016-12-09 19:52:00,
2016-12-09 14:57:00,26.1,17.6,30.58,SSE,147,0.9,1.0,70,0.00,,,0.00,meteobridge,2016-12-09 19:57:00,
2016-12-09 15:02:00,25.9,17.8,30.58,SSW,210,0.9,1.0,71,0.00,,,0.00,meteobridge,2016-12-09 20:02:00,
2016-12-09 15:07:00,25.9,17.4,30.59,SE,146,0.0,2.0,70,0.00,,,0.00,meteobridge,2016-12-09 20:07:00,
2016-12-09 15:12:00,25.9,17.4,30.59,WSW,254,0.0,2.0,70,0.00,,,0.00,meteobridge,2016-12-09 20:12:00,
2016-12-09 15:17:00,25.7,17.2,30.59,East,94,0.0,1.0,70,0.00,,,0.00,meteobridge,2016-12-09 20:17:00,
2016-12-09 15:22:00,25.7,17.2,30.59,South,184,0.9,1.0,70,0.00,,,0.00,meteobridge,2016-12-09 20:22:00,
2016-12-09 15:27:00,25.5,17.1,30.59,SE,143,0.0,2.0,70,0.00,,,0.00,meteobridge,2016-12-09 20:27:00,
2016-12-09 15:32:00,25.5,17.4,30.59,SW,232,0.0,1.0,71,0.00,,,0.00,meteobridge,2016-12-09 20:32:00,
2016-12-09 15:37:00,25.5,17.4,30.59,SSE,153,0.0,1.0,71,0.00,,,0.00,meteobridge,2016-12-09 20:37:00,
2016-12-09 15:42:00,25.5,17.8,30.59,SW,215,0.0,1.0,72,0.00,,,0.00,meteobridge,2016-12-09 20:42:00,
2016-12-09 15:47:00,25.5,17.4,30.60,SW,233,0.0,3.0,71,0.00,,,0.00,meteobridge,2016-12-09 20:47:00,
2016-12-09 15:52:00,25.5,17.4,30.60,WSW,238,0.0,2.0,71,0.00,,,0.00,meteobridge,2016-12-09 20:52:00,
2016-12-09 15:57:00,25.5,17.8,30.60,South,169,0.0,1.0,72,0.00,,,0.00,meteobridge,2016-12-09 20:57:00,
2016-12-09 16:02:00,25.5,17.4,30.60,ESE,112,0.0,1.0,71,0.00,,,0.00,meteobridge,2016-12-09 21:02:00,
2016-12-09 16:07:00,25.5,17.4,30.60,WSW,244,0.0,1.0,71,0.00,,,0.00,meteobridge,2016-12-09 21:07:00,
2016-12-09 16:12:00,25.3,17.2,30.60,SW,226,0.0,1.0,71,0.00,,,0.00,meteobridge,2016-12-09 21:12:00,
2016-12-09 16:17:00,25.3,17.6,30.60,SE,141,0.9,2.0,72,0.00,,,0.00,meteobridge,2016-12-09 21:17:00,
2016-12-09 16:22:00,25.3,17.6,30.60,South,172,0.0,0.0,72,0.00,,,0.00,meteobridge,2016-12-09 21:22:00,
2016-12-09 16:27:00,25.3,17.6,30.60,SE,129,0.0,3.0,72,0.00,,,0.00,meteobridge,2016-12-09 21:27:00,
2016-12-09 16:32:00,25.2,17.4,30.60,SSE,147,0.9,1.0,72,0.00,,,0.00,meteobridge,2016-12-09 21:32:00,
2016-12-09 16:37:00,25.2,17.4,30.60,WSW,238,0.9,1.0,72,0.00,,,0.00,meteobridge,2016-12-09 21:37:00,
2016-12-09 16:42:00,25.2,17.8,30.60,ESE,107,0.0,1.0,73,0.00,,,0.00,meteobridge,2016-12-09 21:42:00,
2016-12-09 16:47:00,25.2,17.8,30.60,ESE,107,0.0,0.0,73,0.00,,,0.00,meteobridge,2016-12-09 21:47:00,
2016-12-09 16:52:00,25.2,17.8,30.60,SE,141,0.0,1.0,73,0.00,,,0.00,meteobridge,2016-12-09 21:52:00,
2016-12-09 16:57:00,25.2,17.8,30.60,SE,136,0.0,0.0,73,0.00,,,0.00,meteobridge,2016-12-09 21:57:00,
2016-12-09 17:02:00,25.2,17.4,30.59,SW,228,0.0,1.0,72,0.00,,,0.00,meteobridge,2016-12-09 22:02:00,
2016-12-09 17:07:00,25.0,17.2,30.59,SE,141,0.0,1.0,72,0.00,,,0.00,meteobridge,2016-12-09 22:07:00,
2016-12-09 17:12:00,25.0,17.2,30.59,SE,141,0.0,1.0,72,0.00,,,0.00,meteobridge,2016-12-09 22:12:00,
2016-12-09 17:17:00,25.0,17.2,30.58,SE,144,0.9,1.0,72,0.00,,,0.00,meteobridge,2016-12-09 22:17:00,
2016-12-09 17:22:00,24.8,17.4,30.59,SSE,157,0.0,1.0,73,0.00,,,0.00,meteobridge,2016-12-09 22:22:00,
2016-12-09 17:27:00,24.6,17.2,30.59,SSE,159,0.0,0.0,73,0.00,,,0.00,meteobridge,2016-12-09 22:27:00,
2016-12-09 17:32:00,24.6,17.2,30.59,SSE,157,0.0,3.0,73,0.00,,,0.00,meteobridge,2016-12-09 22:32:00,
2016-12-09 17:37:00,24.6,17.2,30.60,SE,138,0.0,2.0,73,0.00,,,0.00,meteobridge,2016-12-09 22:37:00,
2016-12-09 17:42:00,24.6,17.2,30.60,SE,130,0.9,3.0,73,0.00,,,0.00,meteobridge,2016-12-09 22:42:00,
2016-12-09 17:47:00,24.4,17.1,30.60,SE,126,0.0,2.0,73,0.00,,,0.00,meteobridge,2016-12-09 22:47:00,
2016-12-09 17:52:00,24.4,17.1,30.60,SE,140,0.9,1.0,73,0.00,,,0.00,meteobridge,2016-12-09 22:52:00,
2016-12-09 17:57:00,24.4,17.4,30.60,SE,143,0.0,1.0,74,0.00,,,0.00,meteobridge,2016-12-09 22:57:00,
2016-12-09 18:02:00,24.4,17.4,30.61,SSE,153,0.0,2.0,74,0.00,,,0.00,meteobridge,2016-12-09 23:02:00,
2016-12-09 18:07:00,24.4,17.4,30.61,SE,140,0.0,1.0,74,0.00,,,0.00,meteobridge,2016-12-09 23:07:00,
2016-12-09 18:12:00,24.4,17.4,30.61,SSE,152,0.9,2.0,74,0.00,,,0.00,meteobridge,2016-12-09 23:12:00,